Location: Newark
(45.4422°N, 16.2769°E)
Time: 22:34:01
(UTC+00:00)

Tiros 1 despin weight - Pass Details

Date: 20 December 2019
Orbit: 594 x 643 km, 48.2° (Epoch: 22 January)

Event Time Altitude Azimuth Distance (km) Brightness Sun altitude
Rises 02:31:02 0° 269° (W) 2,910 - -40.9°
Reaches altitude 10° 02:33:24 10° 273° (W) 1,995 - -40.5°
Maximum altitude 02:37:57 62° 354° (N) 694 - -39.7°
Exits shadow 02:42:10 12° 75° (ENE) 1,864 ? -39.0°
Drops below altitude 10° 02:42:26 10° 76° (ENE) 1,965 ? -38.9°
Sets 02:44:44 0° 80° (E) 2,861 ? -38.5°
